[[{"header":{"parameterUnit":"m.s-1","parameterCategory":1,"la1":30.2991,"la2":30.254,"lo1":-89.0895,"lo2":-89.0444,"dy":0.0017,"dx":0.0017,"nx":28,"ny":28,"refTime":"2024-04-26T03:00:00:Z","depth":0,"parameterNumber":2,"parameterNumberName":"U-component_of_WINDS"},"data":[0,0,0,0,0,0,0,0,0,0,0,0,0,0,0,0,0,0,0,0,0,0,0,0,0,0,0,0,0,0,0,0,0,0,0,0,0,0,0,0,0,0,0,0,0,0,0,0,0,0,0,0,0,0,0,0,0,0,-5.7069,-5.707,0,-5.7105,-5.7105,-5.7106,-5.7023,-5.702,-5.7017,-5.7015,-5.7048,-5.7051,-5.7055,0,0,0,0,0,0,0,0,0,0,0,0,0,-5.6928,-5.6931,-5.7069,-5.707,-5.707,-5.7105,-5.7105,-5.7106,-5.7023,-5.702,-5.7017,-5.7014,-5.7047,-5.7051,-5.7055,0,0,0,0,0,0,0,0,0,0,0,0,0,-5.6979,-5.6932,-5.7069,-5.7033,-5.703,-5.7105,-5.7105,-5.7106,-5.7024,-5.702,-5.7016,-5.7012,-5.7046,-5.7051,-5.7056,-5.7166,0,0,-5.7071,-5.7073,0,0,0,0,0,0,0,0,-5.6976,-5.6984,-5.7038,-5.7036,-5.7033,-5.7055,-5.7067,-5.7126,-5.7025,-5.7026,-5.7015,-5.701,-5.7054,-5.7058,-5.7073,-5.7167,-5.7168,-5.7071,-5.7074,-5.7077,-5.7078,0,0,0,0,0,0,0,-5.6973,-5.6982,-5.7083,-5.7039,-5.7036,-5.7015,-5.7018,-5.7078,-5.7061,-5.7026,-5.702,-5.7025,-5.7051,-5.7068,-5.7073,-5.7169,-5.7071,-5.7076,-5.7079,-5.7081,-5.7355,-5.7359,0,0,0,0,0,0,-5.6974,-5.698,-5.7082,-5.7084,-5.6994,-5.702,-5.7024,-5.7052,-5.7061,-5.7058,-5.7029,-5.7021,-5.7062,-5.7067,-5.7074,-5.7202,-5.7077,-5.7081,-5.7084,-5.7351,-5.7356,-5.7361,0,0,0,0,0,0,-5.6971,-5.6984,-5.7081,-5.7031,-5.7041,-5.7027,-5.706,-5.7055,-5.7072,-5.7063,-5.7059,-5.7049,-5.7059,-5.7067,-5.7144,-5.7202,-5.7083,-5.7088,-5.7346,-5.7352,-5.7358,-5.746,0,0,0,0,0,0,-5.6968,-5.6984,-5.7025,-5.7032,-5.7044,-5.715,-5.7063,-5.7058,-5.7081,-5.7072,-5.7081,-5.7079,-5.7056,-5.7137,-5.7149,-5.7207,-5.7092,-5.734,-5.7349,-5.7356,-5.7451,-5.7469,-5.7485,0,0,0,0,0,-5.6963,-5.7052,-5.7028,-5.7041,-5.7096,-5.7154,-5.7161,-5.7134,-5.7086,-5.7127,-5.7122,-5.7079,-5.7195,-5.7145,-5.7158,-5.7219,-5.7336,-5.7346,-5.7356,-5.7444,-5.7466,-5.7484,0,0,0,0,0,0,-5.7051,-5.7052,-5.7025,-5.712,-5.7138,-5.714,-5.7191,-5.7158,-5.7189,-5.7179,-5.7143,-5.7146,-5.7229,-5.7232,-5.7177,-5.7326,-5.7257,-5.727,-5.732,-5.7341,-5.7357,-5.7353,-5.7096,0,0,0,0,0,-5.7082,-5.7129,-5.7128,-5.7211,-5.7221,-5.7206,-5.7229,-5.7207,-5.7224,-5.7231,-5.7231,-5.7248,-5.7288,-5.7315,-5.7352,-5.7453,-5.7453,-5.7501,-5.7518,-5.7531,-5.7542,-5.7595,-5.7615,-5.7392,-5.7392,-5.7392,0,0,-5.7145,-5.7152,-5.7183,-5.7229,-5.724,-5.7289,-5.7212,-5.7267,-5.7303,-5.7239,-5.731,-5.7312,-5.7329,-5.7418,-5.7457,-5.7423,-5.7604,-5.7544,-5.7555,-5.7557,-5.7607,-5.7628,-5.7647,-5.7399,-5.7397,-5.7396,0,0,-5.7284,-5.7295,-5.7365,-5.7379,-5.7397,-5.7387,-5.7404,-5.7412,-5.741,-5.7483,-5.7436,-5.7478,-5.7548,-5.7562,-5.7578,-5.7726,-5.7687,-5.7739,-5.7824,-5.7877,-5.7894,-5.7909,-5.796,-5.7979,-5.775,-5.7751,-5.7751,0,-5.736,-5.7432,-5.7405,-5.7464,-5.7485,-5.7432,-5.7502,-5.7516,-5.7545,-5.7561,-5.7523,-5.761,-5.7618,-5.7709,-5.7745,-5.7761,-5.7778,-5.7736,-5.7894,-5.7909,-5.7923,-5.7971,-5.7991,-5.7757,-5.7756,-5.7755,-5.7755,0,-5.7524,-5.7575,-5.763,-5.7661,-5.7688,-5.7753,-5.7734,-5.7766,-5.7742,-5.7736,-5.781,-5.7818,-5.7855,-5.7876,-5.7853,-5.7964,-5.7942,-5.79,-5.783,-5.7951,-5.7995,-5.8014,-5.7765,-5.7763,-5.7761,-5.776,0,0,-5.7716,-5.7733,-5.7753,-5.7767,-5.7785,-5.7824,-5.7886,-5.7924,-5.795,-5.7974,-5.8024,-5.8086,-5.8047,-5.8066,-5.8045,-5.8091,-5.8206,-5.8042,-5.8042,-5.8071,-5.8327,-5.8357,-5.8379,-5.8181,-5.8185,-5.8188,-5.8325,0,-5.7852,-5.796,-5.7938,-5.8043,-5.8089,-5.8041,-5.8095,-5.8112,-5.8108,-5.8146,-5.8142,-5.8185,-5.8132,-5.8143,-5.8187,-5.8183,-5.8256,-5.8173,-5.8226,-5.8228,-5.822,-5.8402,-5.8434,-5.8563,-5.8343,-5.8346,-5.8348,0,-5.8025,-5.8056,-5.8166,-5.8177,-5.8195,-5.8244,-5.8277,-5.8316,-5.8334,-5.8328,-5.835,-5.8321,-5.8382,-5.8314,-5.8397,-5.8341,-5.8362,-5.8364,-5.8368,-5.8369,-5.8293,-5.8406,-5.8604,-5.8622,-5.8375,-5.8373,-5.8371,0,-5.8152,-5.8221,-5.8295,-5.8309,-5.8324,-5.836,-5.8368,-5.8382,-5.8406,-5.8436,-5.8451,-5.8487,-5.8506,-5.8534,-5.8515,-5.8468,-5.8601,-5.8532,-5.8596,-5.8596,-5.8623,-5.8621,-5.8824,-5.8642,-5.8642,-5.8641,-5.8641,0,-5.8304,-5.8373,-5.8352,-5.8398,-5.8473,-5.8448,-5.8523,-5.8526,-5.854,-5.8584,-5.8545,-5.8587,-5.8561,-5.8601,-5.8587,-5.8657,-5.8667,-5.8663,-5.8657,-5.8664,-5.8665,-5.8675,-5.8665,-5.8646,-5.8645,-5.8644,-5.8643,0,-5.8457,-5.8447,-5.8524,-5.8534,-5.8538,-5.8593,-5.86,-5.8642,-5.8637,-5.8693,-5.8705,-5.8696,-5.8742,-5.8727,-5.8775,-5.8766,-5.8855,-5.8839,-5.8848,-5.8843,-5.8908,-5.8901,-5.9122,-5.9149,-5.8952,-5.8954,-5.8956,0,-5.8554,-5.8605,-5.8621,-5.8649,-5.866,-5.8705,-5.873,-5.8708,-5.8736,-5.8762,-5.88,-5.8843,-5.8875,-5.8951,-5.8948,-5.8985,-5.8968,-5.9044,-5.8973,-5.8979,-5.8967,-5.8963,-5.8967,-5.9056,-5.9059,-5.9061,-5.9062,0,-5.8726,-5.8719,-5.8757,-5.8794,-5.8825,-5.8853,-5.8877,-5.8902,-5.8882,-5.8915,-5.8962,-5.8987,-5.9038,-5.908,-5.9114,-5.9121,-5.9088,-5.9085,-5.9101,-5.9107,-5.911,-5.9107,-5.8884,-5.9079,-5.9077,-5.9076,-5.9075,-5.9074,-5.8852,-5.8895,-5.8913,-5.8957,-5.8974,-5.8998,-5.9038,-5.9038,-5.9077,-5.9117,-5.9102,-5.9156,-5.9173,-5.9216,-5.9228,-5.9269,-5.924,-5.9264,-5.927,-5.9276,-5.9283,-5.9106,-5.9276,-5.9275,-5.9275,-5.9274,-5.9274,0,-5.902,-5.903,-5.9071,-5.9106,-5.9141,-5.911,-5.9135,-5.9166,-5.9214,-5.9234,-5.9267,-5.9321,-5.9363,-5.9364,-5.9403,-5.9435,-5.9421,-5.9446,-5.9442,-5.9444,-5.9308,-5.9289,-5.9457,-5.9457,-5.9457,-5.9457,-5.9457,-5.9457,-5.9111,-5.9183,-5.9178,-5.9258,-5.9267,-5.932,-5.9337,-5.9359,-5.9375,-5.9437,-5.9472,-5.9473,-5.9486,-5.9525,-5.9561,-5.9561,-5.9576,-5.9606,-5.9599,-5.9471,-5.9453,-5.9436,-5.9417,-5.961,-5.961,-5.9731,-5.9732,-5.9733]},{"header":{"parameterUnit":"m.s-1","parameterCategory":1,"la1":30.2991,"la2":30.254,"lo1":-89.0895,"lo2":-89.0444,"dy":0.0017,"dx":0.0017,"nx":28,"ny":28,"refTime":"2024-04-26T03:00:00:Z","depth":0,"parameterNumber":3,"parameterNumberName":"V-component_of_WINDS"},"data":[0,0,0,0,0,0,0,0,0,0,0,0,0,0,0,0,0,0,0,0,0,0,0,0,0,0,0,0,0,0,0,0,0,0,0,0,0,0,0,0,0,0,0,0,0,0,0,0,0,0,0,0,0,0,0,0,0,0,3.9712,3.9711,0,3.9668,3.9667,3.9667,3.9583,3.9581,3.958,3.9578,3.9533,3.9534,3.9534,0,0,0,0,0,0,0,0,0,0,0,0,0,3.9725,3.9725,3.9712,3.9711,3.9711,3.9668,3.9667,3.9667,3.9583,3.9581,3.9579,3.9577,3.9533,3.9533,3.9534,0,0,0,0,0,0,0,0,0,0,0,0,0,3.9704,3.9725,3.9712,3.9664,3.9659,3.9668,3.9667,3.9666,3.9584,3.9581,3.9579,3.9577,3.9533,3.9533,3.9534,3.9586,0,0,3.9535,3.9536,0,0,0,0,0,0,0,0,3.9705,3.9704,3.9672,3.9667,3.9662,3.9628,3.9655,3.9639,3.9584,3.9612,3.9578,3.9575,3.9567,3.9564,3.9561,3.9584,3.9582,3.9535,3.9536,3.9536,3.9536,0,0,0,0,0,0,0,3.9707,3.9705,3.9694,3.9671,3.9665,3.9645,3.9639,3.9652,3.9604,3.961,3.9604,3.9599,3.9564,3.9561,3.956,3.9581,3.9535,3.9536,3.9536,3.9536,3.9645,3.9648,0,0,0,0,0,0,3.9715,3.9707,3.9696,3.9693,3.9678,3.9647,3.964,3.9642,3.9603,3.9595,3.9602,3.9596,3.9562,3.9559,3.9558,3.9617,3.9536,3.9536,3.9537,3.9643,3.9646,3.9649,0,0,0,0,0,0,3.9716,3.9715,3.9697,3.9698,3.9694,3.9649,3.9651,3.9642,3.9639,3.9597,3.9588,3.9608,3.956,3.9557,3.958,3.9614,3.9537,3.9537,3.964,3.9644,3.9647,3.9735,0,0,0,0,0,0,3.9717,3.9716,3.9735,3.9699,3.9695,3.972,3.9653,3.9643,3.964,3.9632,3.9601,3.9593,3.9558,3.958,3.958,3.9613,3.9537,3.9636,3.9641,3.9646,3.9729,3.9741,3.9752,0,0,0,0,0,3.9717,3.9761,3.9736,3.9735,3.9717,3.9722,3.9719,3.9677,3.9644,3.9662,3.9636,3.9594,3.9611,3.9583,3.9583,3.9616,3.9634,3.964,3.9646,3.9723,3.9739,3.9752,0,0,0,0,0,0,3.9801,3.9755,3.9727,3.976,3.9746,3.9708,3.973,3.9695,3.969,3.9682,3.9631,3.9624,3.9654,3.9637,3.9607,3.9665,3.9616,3.9622,3.9675,3.9689,3.9701,3.9704,3.9538,0,0,0,0,0,3.9823,3.983,3.979,3.9823,3.9818,3.9776,3.9776,3.9745,3.9728,3.9721,3.9696,3.9681,3.9683,3.9685,3.9684,3.9726,3.9719,3.975,3.9761,3.9771,3.9777,3.9799,3.9812,3.9668,3.9668,3.9668,0,0,3.9869,3.9845,3.9853,3.984,3.9825,3.9834,3.9771,3.9783,3.979,3.9723,3.9743,3.9725,3.9705,3.9738,3.9751,3.9725,3.9816,3.9779,3.9787,3.9787,3.9806,3.982,3.9832,3.9672,3.9671,3.9671,0,0,3.9957,3.994,3.9966,3.9953,3.9931,3.9903,3.991,3.9878,3.9863,3.9882,3.9833,3.9841,3.9844,3.9833,3.9827,3.9914,3.9876,3.9915,3.9976,3.9998,4.0009,4.0019,4.005,4.0062,3.9921,3.9921,3.9922,0,4.0017,4.0029,3.9984,3.9999,3.9996,3.9937,3.9963,3.9953,3.9932,3.9931,3.9903,3.9908,3.989,3.992,3.9941,3.9939,3.9945,3.9918,4.0011,4.0021,4.0029,4.0058,4.007,3.9926,3.9926,3.9925,3.9925,0,4.0103,4.0113,4.0136,4.0119,4.0117,4.0139,4.0098,4.0102,4.0072,4.0048,4.0069,4.0046,4.004,4.0045,4.0016,4.0072,4.0056,4.0021,3.9969,4.0049,4.0075,4.0086,3.9933,3.9932,3.993,3.9929,0,0,4.0241,4.02,4.0209,4.0201,4.0174,4.018,4.02,4.0194,4.0199,4.0188,4.0203,4.0209,4.0176,4.017,4.0139,4.0159,4.023,4.012,4.0119,4.0142,4.0291,4.0318,4.0331,4.0205,4.0207,4.0208,4.0292,0,4.0324,4.0353,4.0314,4.0353,4.0361,4.0307,4.0324,4.031,4.0288,4.0292,4.0268,4.0273,4.0229,4.0226,4.0243,4.0218,4.0259,4.0211,4.0219,4.022,4.0225,4.0345,4.0373,4.0453,4.0302,4.0304,4.0305,0,4.0423,4.0417,4.0456,4.0428,4.043,4.0446,4.0439,4.0444,4.0427,4.041,4.0405,4.0368,4.0386,4.0337,4.0362,4.033,4.0331,4.032,4.0322,4.032,4.0267,4.0347,4.0478,4.049,4.0321,4.032,4.0319,0,4.052,4.0522,4.0546,4.054,4.0508,4.0521,4.0508,4.0489,4.0489,4.0483,4.0482,4.0479,4.0477,4.0475,4.0439,4.0407,4.0468,4.0416,4.0455,4.0456,4.0469,4.0469,4.0602,4.0471,4.0471,4.0471,4.047,0,4.0615,4.0642,4.0589,4.0604,4.0632,4.0588,4.0618,4.0599,4.0583,4.0594,4.0547,4.0559,4.051,4.0517,4.0489,4.0514,4.0513,4.05,4.0493,4.0504,4.0506,4.0504,4.0497,4.0474,4.0473,4.0472,4.0472,0,4.0728,4.0693,4.0716,4.0684,4.0677,4.07,4.0672,4.0685,4.0661,4.0676,4.0677,4.0639,4.0645,4.0609,4.0608,4.0589,4.0627,4.061,4.0633,4.0627,4.0668,4.0665,4.0804,4.082,4.068,4.0681,4.0682,0,4.0791,4.081,4.0781,4.0784,4.0774,4.0781,4.0781,4.0739,4.0741,4.0725,4.074,4.0742,4.074,4.0752,4.0725,4.0724,4.0707,4.0756,4.0706,4.0718,4.0707,4.0707,4.0709,4.0766,4.0767,4.0769,4.077,0,4.0906,4.0889,4.089,4.0886,4.0888,4.0882,4.0874,4.088,4.0835,4.084,4.0845,4.0844,4.0844,4.0846,4.0841,4.0828,4.0792,4.0786,4.0795,4.0807,4.0819,4.0814,4.0661,4.0783,4.0781,4.0781,4.078,4.0779,4.0996,4.1011,4.0993,4.0996,4.0986,4.098,4.0991,4.0969,4.0972,4.0968,4.0943,4.0954,4.0938,4.0927,4.0918,4.0926,4.0902,4.0915,4.0918,4.0922,4.0929,4.0819,4.0925,4.0924,4.0924,4.0923,4.0923,0,4.1109,4.1095,4.1099,4.1089,4.1093,4.1059,4.1049,4.1054,4.1063,4.1052,4.1052,4.1059,4.1062,4.1036,4.1035,4.1047,4.103,4.1048,4.1047,4.1045,4.095,4.0943,4.1061,4.1061,4.1061,4.1061,4.1061,4.1061,4.1169,4.1192,4.1173,4.1192,4.1177,4.1187,4.1184,4.1179,4.1169,4.1179,4.1181,4.1164,4.1147,4.1146,4.1147,4.114,4.1142,4.1165,4.1152,4.1064,4.1051,4.1038,4.1031,4.1166,4.1166,4.1246,4.1246,4.1247]}]]